COSMOS 2308 (GLONASS)

Satellite information

Favourite Embed

Satellite Type and Status

PAYLOADIN ORBIT

Key statistics

Satellite COSMOS 2308 (GLONASS) at a glance.

Uptime

11240

Days in orbit

Revolutions

≈ 2.1

Per day

Orbit

MEO

Medium Earth Orbit

Inclination

64.1

Latest

Satellite identification and parameters

Extended collection of information and parameters for COSMOS 2308 (GLONASS).

Object identification

Identified? True

Debris? False

Object name: COSMOS 2308 (GLONASS)

International designator: 1995-009B

Object number (NORAD): 23512

Object ID (CCSDS): 23512

Country: COMMONWEALTH OF INDEPENDENT STATES (CIS)

Current information (Y/N): Y

RCS size: LARGE

Orbital parameters

Period: 675.74 minutes

Inclination: 64.1328 deg

SMA: 25508.202 km

Apoapsis: 19146.196 km

Periapsis: 19113.939 km

RAAN: 307.8634 deg

Eccentricy: 0.0006323

Argument of periapsis: 315.4456 deg

Mean anomaly: 109.4625 deg

Mean motion: 2.13099769 rev/day

Mean motion (dot): -0.00000045 rev/day2

B* drag term: 0.0 1/REarth

Two-line elements (TLE)

Creation date: Dec. 9, 2025, 3:16 p.m.

Reference frame: TEME

Reference center: EARTH

Epoch: Dec. 9, 2025, 6:15 a.m. UTC

TLE line 0: 0 COSMOS 2308 (GLONASS)

TLE line 1: 1 23512U 95009B 25343.26102263 -.00000045 00000-0 00000+0 0 9994

TLE line 2: 2 23512 64.1328 307.8634 0006323 315.4456 109.4625 2.13099769239166

Live tracking on map

Real-time ground track for satellite COSMOS 2308 (GLONASS).

In-orbit conjunctions

There are no conjunctions computed for COSMOS 2308 (GLONASS), at the moment. Check back to stay up to date, as we update our databases every day.

Go to all conjunctions

Associated space launch

GLONASS navigation satellites

COSMOS 2308 (GLONASS) was lifted into orbit during the mission ‘Proton | Uragan 63 to 65’, on board a Proton space rocket.

The launch took place on March 7, 1995, 9:23 a.m. from 200/39 (200L).

For more information about the launch, click the button.

Launch to space Proton | Uragan 63 to 65
Proton | Uragan 63 to 65

Agency: N/A

Status: Launch Successful

Launch date: March 7, 1995, 9:23 a.m. UTC

Rocket: Proton

Launch pad: 200/39 (200L)

Location: Baikonur Cosmodrome, Republic of Kazakhstan

...

Latest news about this satellite

There are no fresh news available about this satellite. Check back as we update our databases every day.


Newsletter sign-up

Weekly statistics, charts and insights to help you stay on top of the space industry.